Temperature
1 1 1 1 0 -0 -0 1 2 3 2 2 2 1 -1 -2 -2 -3 -3 -3 -3 -3 -3 -3 -3 -2 -2 -2 -2 -2 -2 -2 -2 -1 -1 -1 -1 -1 -0 -0 -0 -0 -0 -0
-1 -0 -0 -1 -0 -0 -0 -0 0 1 1 1 -0 -2 -2 -3 -3 -3 -3 -3 -3 -3 -3 -3 -3 -3 -3 -2 -2 -2 -2 -2 -2 -2 -2 -2 -2 -1 -1 -1 -1 -1 -1 -1
1 -1 -1 0 0 -1 -1 -1 -1 0 1 -0 -1 -2 -3 -4 -4 -4 -4 -4 -4 -4 -4 -3 -3 -3 -3 -3 -3 -3 -3 -3 -3 -3 -2 -2 -2 -2 -2 -2 -1 -1 -1 -1
-0 -1 -0 2 -1 -1 -1 -2 -2 -1 -1 -2 -2 -3 -4 -4 -4 -4 -4 -4 -4 -4 -4 -4 -4 -4 -4 -4 -3 -3 -3 -3 -3 -3 -3 -3 -3 -3 -2 -2 -2 -2 -2 -2
-1 -0 1 1 -1 -2 -2 -2 -2 -3 -2 -3 -4 -4 -3 -4 -4 -4 -5 -5 -5 -4 -4 -4 -4 -4 -4 -4 -4 -4 -4 -3 -3 -3 -3 -3 -3 -3 -3 -3 -3 -3 -3 -3
-1 -1 0 1 -2 -4 -3 -1 -2 -4 -4 -4 -4 -2 -2 -4 -5 -5 -5 -5 -5 -5 -5 -5 -5 -5 -5 -5 -4 -4 -4 -4 -4 -4 -4 -4 -4 -4 -4 -4 -4 -4 -4 -4
-2 -1 0 -1 -4 -4 -1 -0 -3 -4 -5 -5 -5 -4 -5 -5 -6 -6 -6 -6 -6 -5 -5 -5 -5 -5 -5 -5 -5 -5 -5 -5 -4 -5 -5 -5 -5 -5 -5 -5 -5 -5 -5 -5
-2 -2 -0 -4 -4 -3 -2 -4 -4 -5 -5 -5 -5 -6 -6 -6 -6 -6 -6 -6 -6 -6 -6 -6 -6 -6 -6 -6 -5 -5 -5 -5 -5 -5 -5 -5 -5 -5 -5 -6 -6 -6 -5 -5
-2 -1 -3 -5 -4 -4 -4 -5 -5 -5 -6 -6 -6 -6 -7 -7 -7 -7 -7 -7 -7 -7 -6 -6 -7 -7 -6 -6 -6 -6 -6 -6 -6 -6 -6 -6 -6 -6 -6 -6 -6 -6 -6 -6
-4 -3 -4 -5 -5 -5 -5 -5 -5 -6 -6 -7 -7 -7 -7 -7 -7 -7 -7 -7 -7 -7 -7 -7 -7 -7 -7 -7 -7 -7 -7 -7 -7 -7 -7 -7 -7 -7 -7 -7 -7 -7 -7 -7
-5 -4 -5 -6 -5 -5 -6 -6 -6 -6 -6 -7 -7 -7 -8 -8 -8 -8 -8 -8 -8 -8 -8 -8 -8 -8 -8 -8 -8 -7 -7 -7 -7 -7 -7 -7 -7 -7 -7 -7 -7 -7 -7 -7
-4 -5 -5 -5 -5 -6 -6 -6 -7 -7 -7 -7 -7 -8 -8 -8 -8 -8 -8 -8 -8 -8 -8 -8 -8 -8 -8 -8 -8 -8 -8 -8 -8 -8 -8 -8 -8 -8 -8 -8 -8 -8 -7 -7
-6 -6 -6 -6 -6 -7 -7 -7 -7 -7 -8 -8 -8 -8 -8 -8 -9 -9 -9 -9 -9 -9 -8 -9 -9 -9 -9 -9 -9 -9 -9 -9 -9 -9 -8 -8 -8 -8 -8 -8 -8 -8 -8 -8
-7 -7 -8 -7 -7 -7 -8 -8 -8 -8 -8 -8 -8 -9 -9 -9 -9 -9 -9 -9 -9 -9 -9 -9 -9 -9 -9 -9 -9 -9 -9 -9 -9 -9 -9 -9 -9 -9 -9 -9 -9 -9 -9 -8
-8 -8 -8 -8 -8 -8 -8 -8 -9 -9 -9 -9 -9 -9 -9 -9 -9 -9 -9 -9 -9 -9 -9 -9 -9 -9 -9 -9 -10 -10 -10 -10 -10 -10 -10 -10 -10 -10 -10 -9 -9 -9 -9 -9
-8 -8 -9 -9 -9 -9 -9 -9 -9 -9 -9 -9 -9 -9 -10 -10 -10 -10 -10 -10 -10 -10 -10 -10 -10 -10 -10 -10 -10 -10 -10 -10 -10 -10 -10 -10 -10 -10 -10 -10 -10 -10 -10 -10
-10 -10 -10 -10 -10 -10 -10 -10 -10 -10 -10 -10 -10 -10 -10 -10 -10 -10 -10 -10 -10 -10 -10 -10 -10 -10 -10 -10 -10 -11 -11 -10 -10 -10 -10 -10 -10 -10 -10 -10 -10 -10 -10 -10
-10 -9 -10 -10 -10 -10 -10 -10 -10 -10 -10 -10 -11 -11 -11 -11 -11 -11 -11 -11 -11 -11 -11 -11 -11 -11 -11 -11 -11 -11 -11 -11 -11 -11 -11 -11 -11 -11 -11 -11 -11 -11 -11 -11
-9 -10 -10 -10 -10 -10 -10 -10 -11 -11 -11 -11 -11 -11 -11 -11 -11 -11 -11 -11 -11 -11 -11 -11 -11 -11 -11 -11 -11 -11 -11 -11 -11 -11 -11 -11 -11 -11 -11 -11 -11 -11 -11 -11
-10 -10 -10 -10 -10 -11 -11 -11 -11 -11 -11 -11 -11 -11 -11 -11 -12 -12 -12 -12 -12 -12 -12 -12 -12 -12 -12 -12 -12 -12 -12 -12 -12 -12 -11 -11 -11 -11 -11 -12 -12 -12 -12 -12
-10 -10 -10 -11 -11 -11 -11 -11 -11 -11 -11 -12 -12 -12 -12 -12 -12 -12 -12 -12 -12 -12 -12 -12 -12 -12 -12 -12 -12 -12 -12 -12 -12 -12 -12 -12 -12 -12 -12 -12 -12 -12 -12 -12
-10 -10 -11 -11 -11 -11 -11 -11 -11 -12 -12 -12 -12 -12 -12 -12 -12 -13 -13 -13 -13 -13 -13 -13 -13 -13 -13 -13 -13 -12 -13 -13 -13 -13 -12 -12 -12 -12 -12 -12 -13 -13 -13 -13
-11 -11 -11 -11 -11 -12 -12 -12 -12 -12 -12 -12 -12 -12 -13 -13 -13 -13 -13 -13 -13 -13 -13 -13 -13 -13 -13 -13 -13 -13 -13 -13 -13 -13 -13 -13 -13 -13 -13 -13 -13 -13 -13 -13
-11 -11 -11 -12 -12 -12 -12 -12 -12 -12 -12 -12 -13 -13 -13 -13 -13 -13 -13 -13 -13 -13 -13 -14 -14 -14 -14 -13 -13 -13 -13 -13 -13 -13 -13 -13 -13 -13 -13 -13 -14 -14 -14 -14
-12 -12 -12 -12 -12 -12 -12 -12 -13 -13 -13 -13 -13 -13 -13 -13 -13 -14 -14 -14 -14 -14 -14 -14 -14 -14 -14 -14 -14 -14 -14 -14 -14 -14 -14 -14 -14 -14 -14 -14 -14 -14 -14 -14
-12 -12 -12 -13 -13 -13 -13 -13 -13 -13 -13 -13 -13 -14 -14 -14 -14 -14 -14 -14 -14 -14 -14 -14 -14 -14 -14 -14 -14 -14 -14 -14 -14 -14 -14 -14 -14 -14 -14 -14 -14 -14 -14 -14
-13 -13 -13 -13 -13 -13 -13 -13 -14 -14 -14 -14 -14 -14 -14 -14 -14 -14 -14 -14 -14 -15 -15 -15 -15 -15 -15 -15 -15 -15 -15 -15 -15 -15 -15 -14 -14 -14 -14 -15 -15 -15 -15 -15
Wind_Speed
9 9 8 10 11 10 12 12 12 13 13 15 11 9 8 7 6 6 6 6 6 5 4 4 4 4 4 4 3 3 3 4 5 5 5 5 5 5 6 6 6 7 7 7
8 8 8 11 14 14 15 14 15 16 17 12 8 6 6 7 6 7 7 7 6 6 5 5 4 4 4 4 4 3 4 5 4 4 5 5 5 5 5 6 6 6 7 7
6 4 6 10 11 12 9 10 11 14 12 6 6 7 7 7 6 7 8 7 7 6 6 5 5 4 5 4 4 4 4 4 4 4 4 5 4 5 5 6 6 6 7 7
4 3 8 5 1 6 9 11 11 11 9 8 7 8 7 6 6 7 7 7 7 6 6 5 4 4 4 3 4 4 4 4 4 4 4 4 4 5 5 4 5 6 6 6
4 6 9 7 3 4 6 8 7 9 9 7 5 6 6 4 4 6 6 6 6 6 5 5 4 3 3 3 3 4 4 4 4 4 4 4 4 5 4 4 4 5 5 6
4 5 7 4 1 1 3 6 3 5 7 6 4 6 5 3 4 5 5 4 5 4 4 4 3 3 3 3 3 4 5 4 4 4 4 4 4 4 4 4 4 4 4 5
8 7 8 2 2 3 4 3 1 3 5 4 5 6 6 5 5 5 5 5 4 4 3 3 3 3 3 4 4 5 4 4 4 3 3 3 3 3 3 3 3 4 4 4
6 7 7 3 5 5 4 2 2 3 4 5 6 6 5 5 5 5 5 5 4 3 4 3 3 2 4 4 5 4 3 3 3 3 3 2 3 3 3 3 4 3 3 3
7 6 2 4 5 3 2 3 4 4 5 5 6 6 6 5 5 5 5 5 4 3 4 3 3 3 4 5 4 3 3 2 2 2 2 2 2 3 3 3 3 3 3 3
6 8 6 5 5 4 4 4 5 5 5 5 6 6 6 5 5 5 4 4 4 3 4 4 4 4 4 4 3 2 2 2 2 1 2 1 1 2 2 3 3 3 3 3
7 8 5 5 6 6 6 5 5 5 5 5 6 6 5 5 5 4 4 4 3 3 4 5 4 4 4 3 2 2 2 2 2 1 1 1 2 2 2 3 3 3 3 3
7 4 4 5 3 3 5 6 6 5 5 5 5 5 5 5 5 4 4 4 4 4 4 5 4 4 4 3 2 2 2 2 1 1 1 1 1 1 2 1 2 2 3 2
5 3 4 6 4 3 4 5 5 5 5 5 4 4 5 4 4 4 4 4 4 4 4 4 4 4 4 3 2 2 2 2 2 1 1 1 1 1 1 2 1 0 1 2
5 3 4 4 4 4 4 4 4 3 4 4 4 3 3 4 3 4 4 4 4 4 4 4 4 4 4 3 2 2 2 2 2 1 1 1 1 1 1 1 0 0 0 1
5 5 6 5 4 4 3 3 3 4 4 4 3 3 3 3 4 4 4 3 3 3 3 3 3 4 3 2 2 2 2 2 1 1 1 1 1 1 1 1 1 1 1 1
4 4 4 4 5 4 3 3 4 5 5 4 4 4 4 4 4 4 3 2 2 3 3 3 4 4 3 2 2 2 2 2 1 1 1 1 1 1 1 1 1 1 1 1
3 4 4 5 5 5 5 5 5 5 5 4 4 3 3 3 3 3 3 3 3 3 4 4 4 4 3 2 2 2 1 1 1 1 1 1 1 1 1 1 2 1 1 1
5 5 5 5 5 5 5 4 4 4 4 4 3 2 2 2 3 3 3 3 3 3 3 3 3 3 3 2 2 1 1 1 1 1 1 1 1 1 1 1 1 1 1 1
3 3 3 3 3 3 4 4 3 3 3 2 2 2 3 3 3 3 3 2 2 3 4 3 4 3 3 3 2 1 1 1 1 1 1 1 1 1 1 1 1 1 1 1
2 2 2 2 2 2 3 3 2 2 2 2 1 2 2 3 3 2 2 2 3 3 4 4 3 3 3 2 2 1 1 1 1 1 1 1 1 1 1 1 1 1 1 1
2 2 2 2 2 2 2 2 1 2 2 1 1 2 2 3 3 2 2 3 3 3 3 3 3 2 2 2 2 1 1 1 1 1 1 1 1 1 1 1 1 1 1 1
1 1 2 1 1 2 2 2 1 1 1 1 1 2 2 2 2 2 2 3 3 4 3 2 2 3 3 2 0 1 1 1 1 1 1 1 1 1 1 1 1 1 1 1
1 1 1 1 1 2 2 2 1 1 1 2 2 2 2 2 2 2 3 3 3 3 3 2 3 3 2 1 1 0 0 0 1 1 1 1 1 1 1 1 1 1 1 1
1 1 1 1 0 1 2 2 2 2 2 2 2 2 2 2 2 2 2 3 4 3 2 3 3 3 2 1 1 1 0 0 1 1 1 1 1 1 1 1 1 1 1 2
1 0 0 0 0 1 2 2 2 2 2 2 3 3 2 2 2 3 2 2 3 3 2 3 3 3 1 1 1 1 1 1 1 1 1 1 1 1 1 1 1 2 2 2
0 1 1 1 1 1 1 1 1 2 2 2 3 3 2 2 2 2 2 2 2 2 2 2 2 2 1 1 1 1 1 1 1 1 1 1 1 1 1 1 2 2 2 2
0 0 1 1 1 1 1 1 1 2 2 2 3 3 2 2 2 2 2 2 2 2 2 2 1 1 1 1 1 1 1 1 1 1 1 1 1 2 2 2 2 2 2 3
Wind_Direction
261 271 267 262 257 239 230 239 249 261 265 273 276 280 286 290 293 294 294 294 290 285 286 288 290 289 281 279 278 267 259 259 261 263 254 244 238 231 226 224 223 221 219 219
267 266 267 268 260 248 243 245 251 263 271 276 283 285 285 288 289 288 291 293 289 288 287 283 286 289 287 285 285 276 259 259 264 266 254 244 240 233 226 223 222 219 217 217
267 289 286 266 249 232 230 231 235 250 262 284 284 282 282 286 284 284 289 291 289 286 284 284 284 284 281 282 282 273 267 265 262 261 259 249 242 233 229 225 221 220 219 218
269 280 250 265 188 224 238 251 242 249 265 272 278 287 283 274 275 286 292 291 290 289 288 291 291 289 287 282 272 270 271 272 266 258 261 257 242 235 234 231 223 223 224 224
230 253 270 273 233 213 230 267 242 242 263 275 294 295 275 262 278 279 285 290 290 288 288 290 287 288 284 273 271 271 273 275 275 261 253 251 242 239 237 229 230 228 226 225
220 241 257 281 174 201 225 264 236 233 261 276 287 280 292 336 314 301 302 305 306 306 302 296 298 296 275 270 271 273 278 279 277 269 259 248 244 239 235 226 227 228 228 227
229 242 262 278 150 172 227 281 4 253 265 263 252 269 304 313 310 308 309 312 312 307 300 297 299 291 279 281 278 284 288 281 273 268 261 253 250 238 223 220 220 223 227 232
211 226 250 152 155 206 259 335 289 282 271 263 264 287 295 296 301 309 314 317 316 306 303 309 302 285 281 283 292 298 291 274 266 268 266 254 242 233 215 205 208 216 221 232
210 232 292 173 201 237 292 279 285 287 282 271 273 280 285 288 292 301 307 310 312 304 306 312 305 285 279 292 303 301 290 277 272 270 268 260 237 222 213 204 206 212 216 222
248 259 259 247 252 264 257 259 277 285 282 272 269 273 278 283 288 296 300 303 306 305 302 304 305 297 288 294 293 285 281 284 285 272 276 277 250 226 214 207 206 209 212 218
252 270 285 260 244 256 265 276 283 285 277 269 265 270 274 280 285 289 293 296 295 289 289 293 300 300 300 294 284 276 279 281 280 279 281 285 278 261 246 245 227 216 218 219
248 248 245 273 292 278 270 272 274 280 286 280 264 266 272 275 279 283 286 292 290 289 289 293 297 297 297 291 275 262 268 274 267 260 263 266 284 334 340 281 276 255 240 237
258 276 261 278 289 291 282 283 283 276 277 285 281 268 267 275 279 282 283 283 283 285 287 290 293 293 295 294 279 259 258 264 264 257 247 242 231 205 353 12 27 235 212 210
263 272 273 272 284 300 297 300 300 297 294 291 290 281 269 273 279 281 282 283 286 286 286 285 288 292 298 293 275 267 264 265 261 253 244 235 229 221 204 190 209 271 147 158
262 257 260 279 294 302 310 313 310 307 309 307 301 288 276 271 275 282 289 293 293 291 289 290 290 294 301 291 275 273 270 266 265 265 249 237 229 219 204 193 183 175 143 117
285 274 264 268 275 289 300 300 291 292 297 298 295 289 285 277 279 288 297 296 282 289 294 293 290 298 300 287 281 278 270 273 273 256 233 220 212 204 192 182 180 183 193 188
266 271 270 277 277 282 282 279 277 283 289 288 288 293 295 295 297 301 305 300 284 283 290 287 292 304 300 285 273 271 271 256 252 239 215 208 202 204 203 199 201 207 216 192
249 261 260 264 270 276 284 285 282 284 283 289 294 293 289 283 283 294 303 309 307 307 304 302 305 307 302 293 284 278 271 259 243 228 222 218 206 202 201 194 188 189 180 162
261 264 270 271 271 271 279 283 285 286 291 288 279 278 282 284 286 297 309 311 306 307 313 314 313 314 305 297 298 282 265 257 257 241 218 204 196 181 174 174 175 173 162 153
300 296 289 292 299 281 282 291 292 294 297 289 282 294 300 301 303 304 305 297 293 296 307 309 309 308 304 297 294 267 243 235 236 231 205 195 191 177 167 163 154 141 137 141
297 302 300 302 311 310 301 296 288 296 310 304 282 289 299 309 313 305 303 309 320 322 320 316 320 311 303 295 275 244 222 218 223 224 210 194 181 167 158 155 154 157 157 159
287 287 291 299 311 321 329 327 311 305 320 322 311 304 307 311 316 311 286 290 314 324 328 316 317 316 323 330 186 197 207 208 216 217 215 210 201 198 195 190 189 186 188 196
270 272 283 283 289 318 342 342 334 325 319 313 305 299 292 292 297 298 305 313 319 324 329 319 322 325 343 48 63 84 225 217 220 223 225 227 222 219 217 215 217 212 211 213
279 287 298 322 14 360 343 342 343 335 321 312 308 299 293 297 301 295 300 316 326 326 326 323 333 347 28 59 47 30 356 291 254 241 232 230 231 229 230 229 231 232 227 229
269 293 342 34 277 299 318 337 345 341 337 331 330 328 312 292 288 305 315 321 327 332 332 338 352 359 18 20 12 347 326 303 287 276 256 245 242 237 240 237 234 238 241 243
248 249 259 264 274 294 314 324 326 324 325 326 328 330 327 322 317 321 322 326 330 335 335 328 331 333 335 331 325 317 313 313 312 305 284 273 263 256 253 248 247 246 245 241
328 310 304 307 308 306 306 297 296 302 306 305 311 319 322 325 326 327 326 326 326 325 325 327 327 321 315 309 305 303 300 298 296 288 281 274 269 262 261 258 259 255 250 244
Height
1494 1492 1493 1491 1490 1492 1492 1484 1479 1470 1471 1467 1469 1471 1471 1471 1469 1468 1467 1465 1464 1462 1461 1459 1458 1457 1456 1456 1456 1456 1456 1456 1457 1458 1459 1459 1460 1461 1463 1465 1466 1468 1470 1471
1495 1492 1492 1489 1485 1485 1485 1483 1479 1475 1471 1467 1469 1470 1469 1468 1467 1465 1463 1462 1460 1459 1457 1456 1455 1454 1453 1452 1452 1452 1452 1452 1453 1453 1454 1455 1455 1456 1458 1459 1461 1463 1464 1466
1486 1492 1491 1479 1476 1477 1478 1476 1475 1470 1465 1466 1466 1466 1466 1465 1464 1462 1460 1459 1457 1455 1454 1453 1451 1451 1450 1449 1449 1449 1448 1448 1448 1448 1449 1450 1450 1451 1452 1453 1455 1457 1458 1460
1489 1491 1483 1468 1475 1474 1474 1472 1471 1468 1466 1466 1465 1464 1463 1462 1461 1459 1457 1456 1454 1452 1451 1449 1448 1447 1446 1446 1445 1445 1444 1444 1444 1444 1444 1445 1445 1446 1447 1448 1449 1451 1452 1454
1489 1482 1470 1467 1472 1473 1473 1468 1467 1466 1465 1464 1464 1462 1459 1459 1458 1456 1455 1453 1451 1450 1448 1447 1445 1444 1443 1443 1442 1441 1441 1440 1440 1440 1440 1440 1440 1441 1442 1443 1444 1446 1447 1449
1487 1480 1470 1462 1471 1472 1473 1464 1463 1464 1463 1463 1463 1459 1456 1456 1455 1453 1452 1450 1448 1447 1445 1444 1443 1442 1441 1440 1439 1438 1437 1436 1437 1436 1436 1436 1437 1437 1438 1439 1440 1441 1442 1444
1483 1478 1466 1467 1470 1472 1467 1459 1462 1461 1461 1461 1460 1458 1457 1454 1452 1451 1449 1447 1446 1444 1443 1441 1440 1439 1437 1436 1435 1435 1434 1433 1433 1433 1432 1432 1433 1433 1434 1434 1436 1437 1438 1439
1479 1475 1466 1467 1468 1467 1461 1461 1460 1459 1458 1458 1456 1455 1453 1451 1450 1448 1446 1444 1443 1441 1440 1439 1438 1436 1434 1433 1432 1432 1431 1430 1429 1429 1429 1429 1429 1429 1430 1431 1432 1432 1433 1435
1470 1465 1463 1463 1462 1461 1461 1460 1458 1457 1456 1455 1453 1452 1450 1448 1447 1445 1443 1442 1440 1439 1437 1436 1435 1434 1432 1431 1429 1428 1427 1427 1426 1426 1426 1426 1426 1426 1427 1427 1428 1428 1430 1430
1469 1462 1461 1461 1460 1459 1458 1457 1456 1455 1453 1452 1450 1449 1447 1446 1444 1442 1441 1439 1438 1436 1435 1433 1432 1431 1429 1428 1426 1425 1424 1424 1423 1423 1423 1423 1423 1423 1423 1424 1424 1425 1426 1427
1465 1460 1459 1456 1456 1456 1455 1454 1453 1452 1450 1449 1447 1446 1445 1443 1441 1440 1438 1436 1435 1433 1432 1431 1429 1428 1427 1425 1424 1422 1422 1421 1421 1420 1420 1420 1420 1420 1420 1421 1422 1422 1423 1424
1456 1456 1457 1454 1453 1453 1451 1450 1449 1448 1446 1445 1444 1442 1441 1440 1438 1437 1435 1434 1432 1431 1429 1428 1427 1425 1424 1423 1422 1420 1419 1419 1418 1418 1418 1418 1418 1418 1418 1419 1419 1420 1421 1422
1454 1453 1453 1451 1450 1449 1448 1446 1445 1444 1443 1442 1440 1439 1438 1436 1435 1433 1432 1431 1429 1428 1427 1425 1424 1423 1422 1421 1420 1419 1418 1417 1416 1416 1416 1416 1415 1415 1415 1416 1417 1418 1418 1419
1451 1451 1449 1448 1447 1446 1445 1443 1442 1441 1440 1439 1437 1436 1435 1433 1432 1430 1429 1428 1427 1426 1424 1423 1422 1421 1420 1419 1418 1417 1416 1415 1415 1414 1414 1414 1414 1414 1413 1413 1414 1415 1416 1417
1448 1448 1447 1445 1444 1443 1442 1440 1439 1437 1436 1435 1434 1433 1431 1430 1428 1427 1426 1425 1424 1423 1422 1421 1420 1419 1418 1417 1416 1415 1414 1413 1413 1412 1412 1412 1412 1412 1412 1412 1412 1413 1414 1415
1444 1444 1443 1442 1441 1439 1438 1437 1436 1434 1433 1432 1431 1430 1428 1427 1426 1424 1423 1422 1421 1420 1419 1418 1418 1417 1416 1415 1414 1413 1412 1412 1411 1411 1410 1410 1410 1410 1410 1410 1410 1411 1412 1413
1442 1440 1439 1438 1437 1436 1435 1434 1433 1431 1430 1429 1428 1427 1426 1424 1423 1422 1421 1420 1419 1418 1417 1416 1415 1415 1414 1413 1412 1411 1410 1410 1409 1409 1409 1408 1408 1408 1408 1408 1408 1409 1410 1411
1439 1438 1437 1436 1435 1433 1432 1431 1430 1429 1427 1426 1425 1424 1423 1422 1421 1420 1419 1418 1417 1416 1415 1414 1413 1412 1412 1411 1410 1409 1408 1408 1407 1407 1407 1407 1407 1406 1406 1406 1407 1408 1408 1409
1436 1435 1434 1433 1432 1431 1429 1428 1427 1426 1425 1424 1423 1422 1421 1420 1419 1418 1417 1416 1414 1413 1413 1412 1411 1410 1409 1409 1408 1407 1407 1406 1406 1406 1406 1406 1405 1405 1405 1405 1406 1406 1407 1408
1433 1433 1432 1431 1430 1429 1427 1426 1425 1424 1423 1422 1421 1420 1419 1418 1417 1416 1415 1414 1413 1412 1411 1410 1409 1408 1407 1407 1406 1405 1405 1405 1404 1404 1404 1404 1404 1404 1404 1404 1404 1405 1405 1406
1431 1430 1430 1429 1428 1427 1425 1424 1423 1422 1421 1421 1419 1418 1417 1416 1415 1414 1413 1411 1411 1410 1409 1408 1407 1406 1406 1405 1404 1404 1403 1403 1403 1403 1403 1403 1403 1403 1403 1403 1403 1403 1404 1404
1429 1429 1428 1427 1426 1425 1424 1423 1422 1421 1420 1419 1418 1417 1416 1414 1413 1412 1411 1411 1409 1408 1407 1406 1405 1404 1404 1403 1402 1402 1401 1401 1401 1401 1401 1401 1401 1401 1402 1402 1402 1402 1402 1403
1428 1427 1426 1425 1425 1424 1423 1422 1421 1420 1419 1417 1416 1415 1414 1413 1412 1410 1409 1409 1407 1406 1405 1404 1403 1403 1402 1401 1400 1400 1400 1399 1399 1399 1399 1400 1400 1400 1400 1400 1400 1400 1400 1401
1426 1425 1424 1424 1423 1422 1421 1420 1420 1419 1417 1416 1415 1414 1412 1411 1410 1409 1408 1407 1406 1405 1404 1403 1402 1401 1401 1400 1399 1399 1398 1398 1398 1398 1398 1398 1398 1398 1398 1398 1398 1399 1399 1399
1424 1423 1423 1422 1421 1420 1420 1419 1418 1417 1416 1415 1413 1412 1411 1409 1408 1407 1406 1405 1404 1403 1402 1402 1401 1400 1399 1399 1398 1398 1397 1397 1397 1397 1397 1397 1397 1397 1397 1397 1397 1397 1396 1396
1422 1421 1421 1420 1420 1419 1418 1417 1416 1415 1414 1413 1412 1410 1409 1408 1407 1406 1405 1404 1403 1402 1401 1400 1400 1399 1399 1398 1397 1397 1396 1396 1396 1396 1395 1395 1395 1395 1395 1395 1395 1394 1394 1394
1420 1419 1419 1418 1418 1417 1416 1415 1414 1413 1412 1411 1410 1409 1408 1406 1405 1404 1403 1402 1401 1401 1400 1399 1399 1398 1398 1397 1397 1396 1395 1395 1395 1394 1394 1394 1394 1393 1393 1393 1392 1392 1392 1391